When you browse on this site, cookies collect data to enhance your experience and personalize the content and advertising you see.
Visit our Privacy Policy to learn more. By continuing to use the site, you agree to this use of cookies and data.
  • In Latvia
  • List of Countries
  • For 7 days
  • Water Temperature
  • Weather Map
  • Weather Widgets
  • user-avatar
    Login

    Hourly Weather Soino

    Today, 23 October, Wednesday

    Time Temperature Precipitation Wind Pressure Humidity
    00:00 +11°C° 0 mm 4 mps 747 mmHg 89%
    01:00 +11°C° 0 mm 4 mps 747 mmHg 89%
    02:00 +11°C° 0 mm 4 mps 747 mmHg 89%
    03:00 +10°C° 0 mm 4 mps 747 mmHg 88%
    04:00 +10°C° 0 mm 4 mps 747 mmHg 87%
    05:00 +9°C° 0 mm 3 mps 747 mmHg 87%
    06:00 +9°C° 0 mm 3 mps 747 mmHg 87%
    07:00 +8°C° 0 mm 4 mps 748 mmHg 88%
    08:00 +8°C° 0 mm 4 mps 748 mmHg 89%
    09:00 +8°C° 0 mm 4 mps 748 mmHg 85%
    10:00 +10°C° 0 mm 4 mps 748 mmHg 82%
    11:00 +10°C° 0 mm 4 mps 748 mmHg 78%
    12:00 +10°C° 0 mm 4 mps 748 mmHg 77%
    13:00 +11°C° 0 mm 3 mps 749 mmHg 76%
    14:00 +11°C° 0 mm 3 mps 749 mmHg 75%
    15:00 +10°C° 0 mm 3 mps 749 mmHg 78%
    16:00 +9°C° 0 mm 3 mps 749 mmHg 82%
    17:00 +9°C° 0 mm 2 mps 749 mmHg 85%
    18:00 +9°C° 0 mm 2 mps 749 mmHg 85%
    19:00 +9°C° 0 mm 2 mps 749 mmHg 85%
    20:00 +10°C° 0 mm 1 mps 749 mmHg 85%
    21:00 +10°C° 0 mm 1 mps 749 mmHg 85%
    22:00 +10°C° 0 mm 1 mps 749 mmHg 86%
    23:00 +9°C° 0 mm 1 mps 749 mmHg 86%

    Tomorrow, 24 October, Thursday

    Time Temperature Precipitation Wind Pressure Humidity
    00:00 +9°C° 0 mm 1 mps 749 mmHg 89%
    01:00 +9°C° 0 mm 1 mps 749 mmHg 91%
    02:00 +7°C° 0 mm 2 mps 750 mmHg 94%
    03:00 +7°C° 0 mm 2 mps 749 mmHg 95%
    04:00 +6°C° 0 mm 2 mps 749 mmHg 96%
    05:00 +6°C° 0 mm 2 mps 749 mmHg 97%
    06:00 +7°C° 0 mm 1 mps 749 mmHg 97%
    07:00 +7°C° 0 mm 1 mps 750 mmHg 97%
    08:00 +7°C° 0 mm 1 mps 750 mmHg 97%
    09:00 +7°C° 0 mm 1 mps 750 mmHg 93%
    10:00 +8°C° 0 mm 1 mps 750 mmHg 89%
    11:00 +9°C° 0 mm 1 mps 750 mmHg 84%
    12:00 +9°C° 0 mm 1 mps 750 mmHg 82%
    13:00 +10°C° 0 mm 1 mps 750 mmHg 79%
    14:00 +10°C° 0 mm 1 mps 750 mmHg 76%
    15:00 +9°C° 0 mm 1 mps 750 mmHg 81%
    16:00 +8°C° 0 mm 1 mps 750 mmHg 86%
    17:00 +8°C° 0 mm 1 mps 750 mmHg 90%
    18:00 +7°C° 0 mm 1 mps 750 mmHg 91%
    19:00 +7°C° 0 mm 1 mps 750 mmHg 92%
    20:00 +7°C° 0 mm 1 mps 750 mmHg 94%
    21:00 +7°C° 0 mm 1 mps 750 mmHg 94%
    22:00 +7°C° 0 mm 1 mps 750 mmHg 94%
    23:00 +6°C° 0 mm 1 mps 750 mmHg 94%

    Day after tomorrow, 25 October, Friday

    Time Temperature Precipitation Wind Pressure Humidity
    00:00 +5°C° 0 mm 2 mps 750 mmHg 94%
    01:00 +5°C° 0 mm 2 mps 750 mmHg 94%
    02:00 +5°C° 0 mm 2 mps 750 mmHg 95%
    03:00 +5°C° 0 mm 2 mps 749 mmHg 94%
    04:00 +5°C° 0 mm 2 mps 749 mmHg 94%
    05:00 +5°C° 0 mm 2 mps 749 mmHg 94%
    06:00 +5°C° 0 mm 3 mps 748 mmHg 93%
    07:00 +5°C° 0 mm 3 mps 748 mmHg 91%
    08:00 +5°C° 0 mm 3 mps 748 mmHg 90%
    09:00 +7°C° 0 mm 4 mps 747 mmHg 86%
    10:00 +10°C° 0 mm 4 mps 747 mmHg 82%
    11:00 +11°C° 0 mm 4 mps 747 mmHg 79%
    12:00 +12°C° 0 mm 5 mps 746 mmHg 77%
    13:00 +13°C° 0 mm 5 mps 746 mmHg 76%
    14:00 +14°C° 0 mm 5 mps 745 mmHg 75%
    15:00 +13°C° 0 mm 4 mps 745 mmHg 79%
    16:00 +12°C° 0 mm 4 mps 745 mmHg 83%
    17:00 +12°C° 0 mm 3 mps 745 mmHg 87%
    18:00 +12°C° 0 mm 3 mps 745 mmHg 88%
    19:00 +12°C° 0 mm 3 mps 745 mmHg 89%
    20:00 +12°C° 0 mm 3 mps 746 mmHg 90%
    21:00 +11°C° 0 mm 3 mps 746 mmHg 90%
    22:00 +11°C° 0 mm 3 mps 746 mmHg 90%
    23:00 +11°C° 0 mm 3 mps 746 mmHg 90%

    26 October, Saturday

    Time Temperature Precipitation Wind Pressure Humidity
    00:00 +10°C° 0 mm 3 mps 747 mmHg 91%
    01:00 +9°C° 0 mm 3 mps 747 mmHg 91%
    02:00 +8°C° 0 mm 3 mps 747 mmHg 92%
    03:00 +8°C° 0 mm 3 mps 747 mmHg 92%
    04:00 +8°C° 0 mm 3 mps 748 mmHg 92%
    05:00 +8°C° 0 mm 3 mps 748 mmHg 91%
    06:00 +8°C° 0 mm 3 mps 748 mmHg 92%
    07:00 +7°C° 0 mm 3 mps 748 mmHg 92%
    08:00 +7°C° 0 mm 3 mps 747 mmHg 92%
    09:00 +8°C° 0 mm 3 mps 747 mmHg 87%
    10:00 +9°C° 0 mm 3 mps 747 mmHg 81%
    11:00 +10°C° 0 mm 3 mps 747 mmHg 76%
    12:00 +10°C° 0 mm 4 mps 746 mmHg 76%
    13:00 +11°C° 0 mm 4 mps 746 mmHg 75%
    14:00 +10°C° 0 mm 5 mps 745 mmHg 75%
    15:00 +10°C° 0 mm 5 mps 744 mmHg 77%
    16:00 +10°C° 0 mm 5 mps 744 mmHg 79%
    17:00 +10°C° 0 mm 5 mps 743 mmHg 81%
    18:00 +10°C° 0 mm 5 mps 742 mmHg 83%
    19:00 +10°C° 0 mm 5 mps 742 mmHg 84%
    20:00 +10°C° 0 mm 5 mps 741 mmHg 85%
    21:00 +10°C° 0 mm 6 mps 741 mmHg 85%
    22:00 +11°C° 0 mm 6 mps 741 mmHg 85%
    23:00 +11°C° 0 mm 6 mps 740 mmHg 84%

    27 October, Sunday

    Time Temperature Precipitation Wind Pressure Humidity
    00:00 +12°C° 0 mm 5 mps 740 mmHg 85%
    01:00 +12°C° 0 mm 5 mps 739 mmHg 86%
    02:00 +10°C° 0 mm 5 mps 739 mmHg 87%
    03:00 +12°C° 0.3 mm 5 mps 738 mmHg 88%
    04:00 +12°C° 0.3 mm 5 mps 738 mmHg 88%
    05:00 +12°C° 0.3 mm 5 mps 738 mmHg 89%
    06:00 +10°C° 0.6 mm 5 mps 738 mmHg 87%
    07:00 +9°C° 0.6 mm 5 mps 738 mmHg 86%
    08:00 +8°C° 0.6 mm 5 mps 737 mmHg 85%
    09:00 +8°C° 0.3 mm 5 mps 738 mmHg 82%
    10:00 +8°C° 0.3 mm 4 mps 738 mmHg 79%
    11:00 +8°C° 0.3 mm 4 mps 738 mmHg 76%
    12:00 +7°C° 0.1 mm 4 mps 738 mmHg 71%
    13:00 +7°C° 0.1 mm 4 mps 738 mmHg 67%
    14:00 +7°C° 0.1 mm 4 mps 738 mmHg 63%
    15:00 +7°C° 0 mm 4 mps 738 mmHg 67%
    16:00 +6°C° 0 mm 4 mps 738 mmHg 71%
    17:00 +5°C° 0 mm 3 mps 738 mmHg 76%
    18:00 +5°C° 0 mm 4 mps 738 mmHg 76%
    19:00 +5°C° 0 mm 4 mps 737 mmHg 77%
    20:00 +5°C° 0 mm 5 mps 737 mmHg 78%
    21:00 +5°C° 0.2 mm 5 mps 737 mmHg 79%
    22:00 +4°C° 0.2 mm 6 mps 737 mmHg 80%
    23:00 +5°C° 0.2 mm 6 mps 736 mmHg 80%

    28 October, Monday

    Time Temperature Precipitation Wind Pressure Humidity
    00:00 +5°C° 0.1 mm 6 mps 736 mmHg 81%
    01:00 +6°C° 0.1 mm 5 mps 736 mmHg 81%
    02:00 +6°C° 0.1 mm 5 mps 736 mmHg 81%
    03:00 +5°C° 0.1 mm 4 mps 736 mmHg 83%
    04:00 +5°C° 0.1 mm 4 mps 736 mmHg 86%
    05:00 +4°C° 0.1 mm 4 mps 736 mmHg 88%
    06:00 +5°C° 0.1 mm 4 mps 736 mmHg 87%
    07:00 +5°C° 0.1 mm 4 mps 736 mmHg 86%
    08:00 +5°C° 0.1 mm 4 mps 736 mmHg 84%
    09:00 +5°C° 0.1 mm 4 mps 736 mmHg 83%
    10:00 +5°C° 0.1 mm 4 mps 736 mmHg 82%
    11:00 +5°C° 0.1 mm 4 mps 736 mmHg 80%
    12:00 +5°C° 0.3 mm 4 mps 736 mmHg 80%
    13:00 +5°C° 0.3 mm 4 mps 737 mmHg 79%
    14:00 +5°C° 0.3 mm 4 mps 737 mmHg 79%
    15:00 +5°C° 0.3 mm 4 mps 737 mmHg 81%
    16:00 +4°C° 0.3 mm 4 mps 737 mmHg 83%
    17:00 +3°C° 0.3 mm 4 mps 737 mmHg 84%
    18:00 +3°C° 0.2 mm 4 mps 738 mmHg 85%
    19:00 +1°C° 0.2 mm 4 mps 738 mmHg 86%
    20:00 0°C° 0.2 mm 4 mps 738 mmHg 87%
    21:00 0°C° 0.1 mm 4 mps 739 mmHg 86%
    22:00 -1°C° 0.1 mm 5 mps 739 mmHg 85%
    23:00 -1°C° 0.1 mm 5 mps 739 mmHg 85%

    29 October, Tuesday

    Time Temperature Precipitation Wind Pressure Humidity
    00:00 -2°C° 0.1 mm 5 mps 740 mmHg 85%
    01:00 -2°C° 0.1 mm 5 mps 740 mmHg 85%
    02:00 -2°C° 0.1 mm 5 mps 740 mmHg 86%
    03:00 -2°C° 0.3 mm 5 mps 740 mmHg 87%
    04:00 -2°C° 0.3 mm 5 mps 740 mmHg 89%
    05:00 -2°C° 0.3 mm 5 mps 740 mmHg 91%
    06:00 -2°C° 0.2 mm 5 mps 741 mmHg 91%
    07:00 -4°C° 0.2 mm 5 mps 741 mmHg 92%
    08:00 -4°C° 0.2 mm 6 mps 741 mmHg 92%
    09:00 -3°C° 0.2 mm 6 mps 742 mmHg 88%
    10:00 -3°C° 0.2 mm 6 mps 743 mmHg 84%
    11:00 -3°C° 0.2 mm 6 mps 744 mmHg 80%
    12:00 -3°C° 0 mm 6 mps 744 mmHg 78%
    13:00 -3°C° 0 mm 6 mps 745 mmHg 76%
    14:00 -3°C° 0 mm 6 mps 746 mmHg 75%
    15:00 -2°C° 0 mm 5 mps 746 mmHg 75%
    16:00 -4°C° 0 mm 5 mps 747 mmHg 76%
    17:00 -4°C° 0 mm 4 mps 748 mmHg 76%
    18:00 -4°C° 0 mm 4 mps 748 mmHg 78%
    19:00 -4°C° 0 mm 4 mps 749 mmHg 79%
    20:00 -5°C° 0 mm 4 mps 750 mmHg 81%
    21:00 -5°C° 0 mm 4 mps 750 mmHg 82%
    22:00 -5°C° 0 mm 4 mps 751 mmHg 84%
    23:00 -5°C° 0 mm 3 mps 751 mmHg 86%
    Show more